When you browse on this site, cookies collect data to enhance your experience and personalize the content and advertising you see.
Visit our Privacy Policy to learn more. By continuing to use the site, you agree to this use of cookies and data.
  • en France
  • Liste des pays
  • À 7 jours
  • Température de l'eau
  • Carte météo
  • Widgets météo
  • user-avatar
    Se connecter

    Météo par heure à Luanda

    Ce jour, 19 Février, Mercredi

    Heure Température Précipitation Vent Pression Humidité
    00:00 +28°C° 0 mm 3 m/s 753 mmHg 83%
    01:00 +28°C° 0 mm 3 m/s 753 mmHg 82%
    02:00 +28°C° 0 mm 3 m/s 752 mmHg 83%
    03:00 +28°C° 0 mm 3 m/s 752 mmHg 84%
    04:00 +28°C° 0 mm 3 m/s 752 mmHg 84%
    05:00 +28°C° 0 mm 2 m/s 752 mmHg 85%
    06:00 +28°C° 0 mm 2 m/s 752 mmHg 86%
    07:00 +28°C° 0 mm 2 m/s 753 mmHg 86%
    08:00 +29°C° 0 mm 1 m/s 753 mmHg 82%
    09:00 +29°C° 0 mm 1 m/s 753 mmHg 78%
    10:00 +30°C° 0 mm 1 m/s 753 mmHg 74%
    11:00 +31°C° 0.1 mm 2 m/s 753 mmHg 69%
    12:00 +34°C° 0.1 mm 2 m/s 753 mmHg 64%
    13:00 +35°C° 0 mm 3 m/s 752 mmHg 60%
    14:00 +33°C° 2.3 mm 3 m/s 752 mmHg 67%
    15:00 +32°C° 2.3 mm 4 m/s 751 mmHg 74%
    16:00 +29°C° 2.3 mm 4 m/s 751 mmHg 80%
    17:00 +29°C° 0.1 mm 4 m/s 751 mmHg 80%
    18:00 +29°C° 0.1 mm 4 m/s 752 mmHg 80%
    19:00 +28°C° 0.1 mm 4 m/s 752 mmHg 80%
    20:00 +28°C° 0 mm 3 m/s 752 mmHg 82%
    21:00 +28°C° 0 mm 2 m/s 753 mmHg 83%
    22:00 +27°C° 0 mm 1 m/s 753 mmHg 84%
    23:00 +27°C° 0 mm 2 m/s 753 mmHg 84%

    Demain, 20 Février, Jeudi

    Heure Température Précipitation Vent Pression Humidité
    00:00 +27°C° 0 mm 2 m/s 753 mmHg 84%
    01:00 +27°C° 0 mm 2 m/s 753 mmHg 84%
    02:00 +27°C° 0 mm 2 m/s 752 mmHg 85%
    03:00 +27°C° 0 mm 2 m/s 752 mmHg 86%
    04:00 +26°C° 0 mm 2 m/s 751 mmHg 87%
    05:00 +27°C° 0 mm 2 m/s 752 mmHg 87%
    06:00 +27°C° 0 mm 2 m/s 752 mmHg 88%
    07:00 +27°C° 0 mm 2 m/s 753 mmHg 88%
    08:00 +28°C° 0 mm 2 m/s 753 mmHg 83%
    09:00 +29°C° 0 mm 2 m/s 753 mmHg 78%
    10:00 +30°C° 0 mm 2 m/s 753 mmHg 74%
    11:00 +31°C° 0 mm 1 m/s 752 mmHg 71%
    12:00 +31°C° 0 mm 1 m/s 752 mmHg 69%
    13:00 +32°C° 0 mm 1 m/s 751 mmHg 67%
    14:00 +32°C° 0 mm 2 m/s 750 mmHg 66%
    15:00 +34°C° 0 mm 3 m/s 750 mmHg 64%
    16:00 +34°C° 0 mm 5 m/s 749 mmHg 63%
    17:00 +33°C° 0 mm 5 m/s 749 mmHg 69%
    18:00 +32°C° 0 mm 5 m/s 750 mmHg 75%
    19:00 +29°C° 0 mm 5 m/s 750 mmHg 81%
    20:00 +29°C° 0.1 mm 5 m/s 751 mmHg 82%
    21:00 +29°C° 0.1 mm 5 m/s 751 mmHg 84%
    22:00 +28°C° 0.1 mm 4 m/s 752 mmHg 85%
    23:00 +28°C° 0 mm 4 m/s 752 mmHg 86%

    Après-demain, 21 Février, Vendredi

    Heure Température Précipitation Vent Pression Humidité
    00:00 +28°C° 0 mm 4 m/s 751 mmHg 88%
    01:00 +28°C° 0 mm 3 m/s 751 mmHg 89%
    02:00 +28°C° 0 mm 3 m/s 751 mmHg 89%
    03:00 +28°C° 0 mm 3 m/s 751 mmHg 90%
    04:00 +28°C° 0 mm 3 m/s 750 mmHg 90%
    05:00 +28°C° 0 mm 3 m/s 751 mmHg 90%
    06:00 +28°C° 0 mm 3 m/s 751 mmHg 90%
    07:00 +28°C° 0 mm 3 m/s 752 mmHg 89%
    14:00 +36°C° 0 mm 4 m/s 750 mmHg 53%
    15:00 +36°C° 0 mm 5 m/s 749 mmHg 55%
    16:00 +36°C° 0 mm 6 m/s 749 mmHg 56%
    17:00 +34°C° 0 mm 6 m/s 749 mmHg 64%
    18:00 +32°C° 0 mm 5 m/s 750 mmHg 71%
    19:00 +29°C° 0 mm 5 m/s 750 mmHg 79%
    20:00 +29°C° 0 mm 5 m/s 751 mmHg 80%
    21:00 +29°C° 0 mm 5 m/s 751 mmHg 82%
    22:00 +28°C° 0 mm 5 m/s 752 mmHg 84%
    23:00 +28°C° 0 mm 4 m/s 752 mmHg 85%

    22 Février, Samedi

    Heure Température Précipitation Vent Pression Humidité
    00:00 +28°C° 0 mm 4 m/s 751 mmHg 87%
    01:00 +28°C° 0 mm 3 m/s 751 mmHg 88%
    02:00 +28°C° 0 mm 3 m/s 751 mmHg 88%
    03:00 +28°C° 0 mm 3 m/s 751 mmHg 89%
    04:00 +28°C° 0 mm 3 m/s 751 mmHg 89%
    05:00 +28°C° 0 mm 3 m/s 751 mmHg 88%
    06:00 +28°C° 0 mm 2 m/s 751 mmHg 87%
    07:00 +28°C° 0 mm 2 m/s 752 mmHg 86%
    08:00 +29°C° 0 mm 2 m/s 752 mmHg 81%
    09:00 +30°C° 0 mm 2 m/s 752 mmHg 76%
    10:00 +31°C° 0 mm 2 m/s 753 mmHg 71%
    11:00 +34°C° 0 mm 2 m/s 752 mmHg 64%
    12:00 +35°C° 0 mm 3 m/s 751 mmHg 57%
    13:00 +37°C° 0 mm 4 m/s 751 mmHg 50%
    14:00 +37°C° 0 mm 5 m/s 750 mmHg 52%
    15:00 +36°C° 0 mm 6 m/s 750 mmHg 54%
    16:00 +36°C° 0 mm 6 m/s 749 mmHg 56%
    17:00 +34°C° 0 mm 6 m/s 750 mmHg 63%
    18:00 +32°C° 0 mm 6 m/s 750 mmHg 71%
    19:00 +29°C° 0 mm 5 m/s 751 mmHg 79%
    20:00 +29°C° 0 mm 5 m/s 751 mmHg 80%
    21:00 +29°C° 0 mm 4 m/s 752 mmHg 82%
    22:00 +28°C° 0 mm 4 m/s 753 mmHg 83%
    23:00 +28°C° 0 mm 4 m/s 752 mmHg 83%

    23 Février, Dimanche

    Heure Température Précipitation Vent Pression Humidité
    00:00 +28°C° 0 mm 4 m/s 752 mmHg 83%
    01:00 +28°C° 0 mm 3 m/s 752 mmHg 82%
    02:00 +28°C° 0 mm 3 m/s 752 mmHg 82%
    03:00 +28°C° 0 mm 2 m/s 752 mmHg 82%
    04:00 +28°C° 0 mm 2 m/s 752 mmHg 82%
    05:00 +28°C° 0 mm 2 m/s 752 mmHg 82%
    06:00 +28°C° 0 mm 2 m/s 753 mmHg 82%
    07:00 +28°C° 0 mm 2 m/s 753 mmHg 82%
    08:00 +28°C° 0 mm 2 m/s 753 mmHg 80%
    09:00 +29°C° 0 mm 2 m/s 754 mmHg 78%
    10:00 +29°C° 0 mm 3 m/s 754 mmHg 76%
    11:00 +29°C° 0 mm 2 m/s 754 mmHg 76%
    12:00 +29°C° 0 mm 2 m/s 753 mmHg 75%
    13:00 +29°C° 0 mm 1 m/s 753 mmHg 74%
    14:00 +29°C° 0 mm 2 m/s 752 mmHg 75%
    15:00 +29°C° 0 mm 2 m/s 752 mmHg 77%
    16:00 +29°C° 0 mm 2 m/s 751 mmHg 78%
    17:00 +29°C° 0 mm 2 m/s 752 mmHg 79%
    18:00 +28°C° 0 mm 2 m/s 752 mmHg 80%
    19:00 +28°C° 0 mm 2 m/s 752 mmHg 81%
    20:00 +28°C° 0 mm 2 m/s 753 mmHg 81%
    21:00 +28°C° 0 mm 3 m/s 753 mmHg 81%
    22:00 +28°C° 0 mm 4 m/s 753 mmHg 81%
    23:00 +27°C° 0 mm 3 m/s 753 mmHg 82%

    24 Février, Lundi

    Heure Température Précipitation Vent Pression Humidité
    00:00 +27°C° 0 mm 3 m/s 753 mmHg 83%
    01:00 +27°C° 0 mm 3 m/s 753 mmHg 84%
    02:00 +27°C° 0 mm 3 m/s 753 mmHg 85%
    03:00 +26°C° 0 mm 3 m/s 752 mmHg 86%
    04:00 +26°C° 0 mm 3 m/s 752 mmHg 87%
    05:00 +26°C° 0 mm 3 m/s 752 mmHg 87%
    06:00 +26°C° 0 mm 3 m/s 752 mmHg 87%
    07:00 +27°C° 0 mm 3 m/s 753 mmHg 87%
    08:00 +28°C° 0 mm 3 m/s 753 mmHg 79%
    09:00 +30°C° 0 mm 2 m/s 754 mmHg 71%
    10:00 +32°C° 0 mm 1 m/s 754 mmHg 63%
    11:00 +32°C° 0 mm 2 m/s 754 mmHg 62%
    12:00 +34°C° 0 mm 3 m/s 753 mmHg 60%
    13:00 +34°C° 0 mm 4 m/s 753 mmHg 59%
    14:00 +34°C° 0 mm 4 m/s 752 mmHg 60%
    15:00 +33°C° 0 mm 4 m/s 752 mmHg 62%
    16:00 +33°C° 0 mm 4 m/s 751 mmHg 64%
    17:00 +32°C° 0 mm 4 m/s 752 mmHg 68%
    18:00 +29°C° 0 mm 3 m/s 752 mmHg 72%
    19:00 +28°C° 0 mm 2 m/s 753 mmHg 76%
    20:00 +28°C° 0 mm 2 m/s 753 mmHg 77%
    21:00 +28°C° 0 mm 2 m/s 753 mmHg 78%
    22:00 +28°C° 0 mm 2 m/s 754 mmHg 79%
    23:00 +27°C° 0 mm 2 m/s 753 mmHg 80%
    Voir plus